Regional Weather Roundup
Issued by NWS

Home | Current Version | Previous Version | Graphics & Text | Print | Product List | Glossary On
Versions: 1 2 3 4 5 6 7 8 9 10 11 12 13 14 15 16 17 18 19 20 21 22 23 24 25 26 27 28 29 30 31 32 33 34 35 36 37 38 39 40 41 42 43 44 45 46 47 48 49 50
000
ASUS44 KMEG 291510
RWRTN
TENNESSEE HOURLY STATE WEATHER ROUNDUP
NATIONAL WEATHER SERVICE MEMPHIS TN
1000 AM CDT WED MAR 29 2017

TNZ002-004-019-021-049-052-054-088>092-291600-
WEST TENNESSEE

CITY           SKY/WX    TMP DP  RH WIND       PRES   REMARKS
MEMPHIS INTL   CLOUDY    72  63  73 S13       29.99R
NWS MEMPHIS      N/A     71 N/A N/A MISG        N/A
JACKSON        CLOUDY    67  57  70 SE5       30.02R
DYERSBURG      CLOUDY    65  56  72 SE9       30.01S
SOMERVILLE     MOSUNNY   70  59  68 S7G14     29.99F
BOLIVAR        MOSUNNY   68  57  68 E7        30.00F
PARIS          CLOUDY    59  54  82 SE7       30.05R
HUNTINGDON     CLOUDY    63  55  77 SE7       30.04R
SAVANNAH       MOSUNNY   72  57  60 S10       30.02R
$$

TNZ008-025-027-028-033-062-065-066-291600-
NORTH MIDDLE TENNESSEE

CITY           SKY/WX    TMP DP  RH WIND       PRES   REMARKS
NASHVILLE      MOSUNNY   64  54  69 SE5       30.06R
PORTLAND       SUNNY     61  55  82 VRB7      30.07R
CLARKSVILLE    SUNNY     62  54  74 E10       30.05R
SMYRNA         MOSUNNY   64  55  72 VRB3      30.07
COOKEVILLE     SUNNY     63  54  72 E7        30.05S
GALLATIN       SUNNY     64  55  72 VRB6      30.09R
CROSSVILLE     SUNNY     57  52  83 E7        30.09S
$$

TNZ061-075-076-078-094-096-097-291600-
SOUTH MIDDLE TENNESSEE

CITY           SKY/WX    TMP DP  RH WIND       PRES   REMARKS
FAYETTEVILLE   SUNNY     68  55  64 VRB5      30.04R
TULLAHOMA      SUNNY     66  52  59 E5        30.05
WINCHESTER     SUNNY     66  54  63 E9        30.05S
MCMINNVILLE    SUNNY     63  55  77 CALM      30.05S
COLUMBIA       SUNNY     64  63  94 CALM      30.02R
SHELBYVILLE    MOSUNNY   68  55  64 VRB5      30.05S
$$

TNZ017-018-042-046-047-291600-
NORTHEAST TENNESSEE

CITY           SKY/WX    TMP DP  RH WIND       PRES   REMARKS
TRI CITIES     MOSUNNY   65  52  62 NE8       30.11S
ELIZABETHTON   SUNNY     63  52  67 VRB5      30.10S
$$

TNZ012-013-036-069-073-074-291600-
CENTRAL EAST TENNESSEE

CITY           SKY/WX    TMP DP  RH WIND       PRES   REMARKS
KNOXVILLE      MOSUNNY   62  52  69 CALM      30.08R
OAK RIDGE      SUNNY     65  52  62 VRB3      30.09S
DOWNTOWN KNOXV SUNNY     66  54  63 VRB5      30.09S
GATLINBURG     SUNNY     63  52  67 E6        30.08S
MORRISTOWN     SUNNY     64  54  68 E9        30.08S
JACKSBORO      MOSUNNY   64  54  68 SE6       30.12S
$$

TNZ083-085-099-291600-
SOUTHEAST TENNESSEE

CITY           SKY/WX    TMP DP  RH WIND       PRES   REMARKS
CHATTANOOGA    MOSUNNY   65  52  62 VRB3      30.08R
$$

SKY/WX REPORTED AS FAIR MEANS FEW OR NO CLOUDS BELOW
12 THOUSAND FEET.




USA.gov is the U.S. government's official web portal to all federal, state and local government web resources and services.